Wind_Speed
13 13 14 14 15 15 16 16 17 18 18 19 20 21 21 21 21 22 22 23 23 24 23 23 23 24 24 25 25 25 25 25 25 25 25 25 24 24
14 14 15 16 16 16 17 18 18 19 19 20 21 21 21 22 23 23 24 23 23 24 24 24 24 24 24 24 25 25 26 25 25 25 25 25 23 24
15 16 16 17 17 18 19 19 20 20 20 21 22 22 21 23 24 24 24 23 24 24 24 25 24 25 25 25 25 25 25 25 25 25 25 25 24 24
17 17 17 18 18 19 20 20 21 20 21 21 21 21 22 22 24 24 24 24 24 24 24 24 25 26 26 26 26 25 25 24 24 24 24 25 24 25
18 18 18 19 20 21 21 22 22 22 21 21 21 22 22 22 23 23 23 24 24 24 24 24 24 24 25 25 25 24 23 24 24 23 23 24 25 26
19 19 20 20 21 21 22 22 23 23 23 22 21 22 22 22 22 22 22 23 24 24 24 24 24 24 24 23 23 22 23 24 24 25 25 25 25 26
20 20 21 21 22 23 24 24 24 25 24 24 24 23 23 23 22 22 23 23 23 24 24 24 24 24 23 23 22 22 22 23 24 25 26 26 26 26
22 22 23 23 24 24 25 25 25 25 25 25 25 25 25 23 23 24 24 24 24 24 24 24 24 23 23 23 23 23 24 25 25 25 25 26 27 27
24 24 25 25 25 26 25 25 25 25 25 25 26 26 25 25 24 25 25 25 25 25 24 24 24 23 23 23 23 24 24 24 25 25 26 26 26 26
26 26 26 26 26 26 25 25 25 25 26 26 26 25 25 26 25 25 26 26 26 26 25 24 24 24 24 24 24 24 24 24 25 25 26 26 25 26
27 27 27 27 28 27 26 26 26 27 27 27 27 27 27 27 27 26 26 26 26 26 26 25 25 24 24 24 24 24 24 25 25 25 25 25 26 26
29 29 29 29 29 28 28 27 27 28 28 28 28 28 28 27 27 27 27 27 27 27 27 27 26 26 25 25 26 26 26 26 26 26 26 26 27 27
30 31 31 31 31 31 30 30 29 29 29 29 29 29 28 28 27 27 27 27 27 28 27 27 27 27 27 26 27 27 27 27 27 27 26 27 27 28
32 32 33 32 32 32 32 31 31 32 31 30 30 29 29 28 28 28 28 28 28 28 28 28 28 28 28 28 27 28 28 28 28 28 28 28 28 28
32 33 33 33 32 32 33 33 33 32 32 31 30 29 29 29 29 29 29 29 29 29 29 29 29 29 29 29 29 29 29 29 29 29 28 28 29 29
32 32 32 33 32 33 33 33 33 33 32 32 31 30 30 30 30 30 29 29 29 29 29 29 30 30 30 30 30 30 29 29 29 29 29 29 29 29
33 33 33 33 33 32 32 32 32 32 32 31 31 31 31 31 31 30 30 30 30 30 30 30 30 31 31 30 30 30 29 29 29 29 30 30 29 29
33 33 33 33 33 33 33 33 33 32 32 32 31 31 30 30 30 31 30 30 30 30 30 30 31 31 31 30 30 30 30 29 29 29 30 30 30 30
33 33 33 33 33 33 33 33 33 32 32 32 32 31 31 31 30 30 30 30 30 30 30 30 30 31 31 31 30 31 31 31 31 30 30 30 29 29
33 33 33 33 33 32 32 33 32 32 31 31 31 31 30 30 29 30 30 30 30 30 30 30 30 31 31 31 31 31 31 31 32 31 31 30 29 29
33 33 33 32 32 32 32 32 32 31 31 30 29 30 30 30 30 30 30 30 30 30 30 30 31 31 31 32 32 31 31 32 31 31 30 30 29 28
33 33 33 33 32 32 32 32 32 32 31 30 30 30 29 30 30 29 29 30 29 30 30 30 31 31 31 32 32 32 32 31 31 31 30 29 29 28
34 34 34 34 33 33 33 33 33 32 32 31 31 30 30 30 30 30 30 30 30 30 31 31 31 31 32 31 31 31 32 32 31 31 30 30 29 29
Wind_Direction
294 294 294 294 292 290 289 289 288 286 285 284 282 282 281 280 280 280 279 277 277 278 279 278 277 275 273 273 271 271 271 270 271 271 272 271 270 269
292 292 292 293 292 293 293 293 291 289 286 284 286 287 284 281 281 281 280 278 277 277 278 278 278 277 276 274 273 272 271 270 270 270 270 270 269 266
294 293 292 291 291 294 295 296 295 292 289 287 286 286 286 284 282 281 281 279 278 277 278 278 278 277 277 275 275 273 271 270 269 269 268 270 270 270
295 295 294 293 293 294 296 296 296 294 291 289 287 286 286 286 282 281 281 281 280 280 279 279 279 279 277 276 275 274 272 270 270 269 268 269 271 272
295 295 295 295 295 296 296 297 297 295 293 289 288 286 285 286 285 283 282 281 282 281 281 280 280 281 279 276 274 273 271 270 270 270 269 270 271 271
297 297 296 295 295 295 295 295 296 295 293 291 289 287 287 286 285 284 283 284 284 283 282 282 282 281 281 278 275 273 271 270 270 269 269 270 273 272
299 299 299 298 297 295 294 294 294 293 292 290 289 288 288 285 283 282 282 283 284 283 283 282 281 281 281 281 279 276 274 272 271 270 269 271 273 274
297 297 297 297 296 296 295 294 294 292 290 288 288 287 286 285 284 283 282 281 282 282 282 282 281 280 279 279 279 278 277 275 275 274 272 272 273 274
294 295 295 295 296 297 296 295 294 292 289 287 286 285 284 285 284 282 281 280 280 281 282 283 282 281 279 279 280 279 278 277 275 275 275 274 274 272
293 293 294 293 294 294 296 296 294 292 291 288 287 286 285 285 285 285 284 282 282 280 281 283 282 280 278 279 278 278 278 278 278 277 277 276 276 277
292 292 292 292 293 293 294 294 293 293 291 289 287 286 285 284 284 284 283 282 282 282 280 281 280 279 279 279 279 279 280 280 280 281 280 280 279 279
291 290 290 290 290 290 291 292 291 291 290 289 286 285 284 283 282 282 282 281 280 280 280 280 279 278 278 278 279 280 281 282 282 281 281 282 282 282
291 290 289 289 289 289 291 291 291 290 289 288 287 286 284 283 282 282 281 280 280 280 279 278 278 277 278 278 278 279 280 282 282 281 282 283 283 283
291 290 289 288 287 290 290 290 289 289 289 290 289 286 284 282 281 280 280 280 280 279 278 278 277 277 278 278 277 278 279 280 280 281 282 283 283 284
290 290 289 289 288 289 289 288 288 289 289 289 288 285 283 282 281 281 281 280 278 278 277 276 276 276 276 277 277 278 278 279 280 280 280 282 283 284
294 292 291 290 289 289 288 288 288 289 289 287 287 285 281 280 280 281 281 279 278 277 276 275 276 276 276 277 277 278 278 279 280 280 280 282 283 283
294 294 292 291 289 289 289 289 288 289 289 289 286 284 281 279 278 279 279 279 278 276 275 275 276 276 276 276 276 276 277 278 279 281 282 282 283 283
293 293 293 293 290 290 290 289 289 289 288 287 286 283 281 279 279 279 279 279 278 277 276 274 274 273 274 275 276 277 278 279 280 282 283 283 282 282
292 292 293 292 291 291 290 290 290 289 287 286 285 282 281 281 280 280 279 279 279 278 277 274 273 273 274 276 276 277 278 279 280 281 282 282 281 281
294 295 294 292 292 291 292 291 290 289 288 287 285 283 281 281 280 280 278 279 279 278 277 274 273 273 274 275 276 278 279 279 280 281 280 279 279 279
294 294 295 294 293 291 290 290 289 287 286 285 284 283 282 282 282 281 280 279 279 278 276 274 274 274 273 274 276 277 278 279 280 279 278 277 278 279
292 293 294 294 293 292 290 288 288 287 285 284 283 282 282 282 282 281 281 280 278 277 276 274 274 274 274 275 276 276 276 277 277 276 276 275 277 278
291 291 292 293 293 291 290 289 287 286 285 283 283 283 281 281 281 280 280 280 277 275 274 274 273 274 276 276 275 275 275 276 277 276 274 274 274 275
Height
5861 5861 5860 5858 5857 5856 5855 5854 5854 5852 5851 5849 5848 5847 5846 5845 5844 5843 5842 5841 5840 5839 5838 5838 5837 5836 5836 5836 5835 5835 5835 5835 5835 5835 5835 5835 5834 5834
5858 5857 5856 5855 5854 5852 5851 5850 5849 5848 5846 5845 5843 5842 5841 5839 5838 5837 5836 5835 5834 5833 5832 5832 5831 5830 5829 5829 5829 5828 5828 5828 5828 5828 5828 5828 5828 5828
5854 5853 5852 5851 5849 5848 5847 5846 5844 5843 5842 5840 5838 5837 5836 5834 5833 5831 5830 5829 5828 5827 5826 5825 5824 5823 5823 5822 5822 5821 5821 5821 5821 5822 5822 5822 5822 5822
5850 5849 5847 5846 5845 5843 5842 5840 5839 5837 5836 5835 5833 5832 5830 5828 5827 5825 5824 5823 5822 5821 5820 5819 5818 5817 5816 5815 5815 5814 5814 5814 5814 5815 5815 5815 5815 5815
5845 5844 5843 5841 5840 5838 5837 5835 5833 5832 5830 5829 5827 5826 5824 5823 5821 5819 5818 5817 5815 5814 5813 5812 5811 5810 5809 5808 5808 5808 5807 5807 5808 5808 5808 5808 5809 5808
5840 5839 5837 5836 5834 5833 5831 5829 5827 5826 5824 5822 5821 5819 5818 5816 5815 5813 5812 5811 5809 5808 5806 5805 5804 5803 5802 5802 5801 5801 5801 5801 5801 5801 5801 5801 5801 5801
5835 5834 5832 5830 5828 5827 5825 5823 5821 5819 5818 5816 5814 5813 5811 5810 5809 5807 5806 5804 5803 5802 5800 5799 5798 5797 5796 5795 5795 5794 5794 5794 5794 5794 5794 5794 5794 5794
5830 5828 5826 5825 5823 5821 5819 5817 5815 5813 5811 5809 5808 5806 5805 5803 5802 5801 5799 5798 5797 5796 5794 5793 5791 5791 5790 5789 5788 5788 5787 5787 5787 5786 5786 5786 5786 5786
5824 5822 5820 5818 5816 5814 5812 5810 5808 5806 5804 5803 5801 5800 5798 5796 5795 5794 5792 5791 5790 5788 5787 5786 5785 5784 5783 5782 5782 5781 5781 5780 5780 5779 5779 5778 5778 5778
5817 5815 5813 5811 5809 5807 5805 5803 5801 5799 5797 5795 5794 5792 5791 5789 5787 5786 5784 5783 5782 5781 5780 5779 5778 5777 5776 5776 5775 5774 5774 5773 5773 5772 5771 5771 5770 5770
5810 5808 5806 5804 5802 5799 5798 5796 5794 5792 5789 5787 5786 5784 5783 5781 5779 5778 5777 5775 5775 5774 5773 5772 5771 5770 5770 5769 5768 5768 5767 5766 5765 5765 5764 5763 5763 5762
5802 5800 5798 5796 5794 5791 5790 5788 5786 5784 5782 5780 5778 5776 5774 5773 5771 5770 5769 5768 5767 5766 5765 5765 5764 5763 5763 5762 5761 5760 5760 5759 5758 5757 5757 5756 5755 5754
5794 5792 5789 5787 5785 5783 5781 5779 5778 5775 5773 5771 5769 5768 5766 5764 5763 5762 5761 5760 5759 5758 5757 5757 5756 5755 5755 5755 5754 5753 5752 5751 5750 5750 5749 5748 5747 5746
5785 5782 5780 5778 5776 5774 5772 5771 5769 5767 5765 5762 5760 5759 5757 5756 5754 5753 5752 5751 5750 5750 5749 5748 5748 5747 5747 5746 5746 5745 5744 5743 5742 5742 5741 5740 5739 5738
5776 5773 5771 5768 5767 5765 5763 5761 5759 5757 5755 5754 5752 5750 5748 5747 5746 5745 5743 5742 5741 5740 5740 5739 5739 5738 5738 5738 5737 5737 5736 5735 5734 5733 5732 5731 5730 5729
5767 5764 5761 5759 5757 5755 5754 5752 5750 5748 5746 5744 5743 5741 5739 5737 5736 5735 5734 5733 5732 5731 5730 5730 5729 5729 5729 5728 5728 5727 5727 5726 5725 5724 5723 5723 5722 5721
5758 5755 5753 5750 5748 5746 5744 5742 5740 5738 5736 5734 5732 5731 5729 5728 5726 5725 5724 5723 5723 5722 5721 5721 5720 5720 5719 5719 5719 5718 5717 5717 5716 5715 5714 5714 5713 5711
5749 5746 5743 5741 5739 5737 5735 5733 5731 5729 5727 5724 5722 5721 5719 5718 5717 5716 5715 5714 5713 5712 5712 5711 5711 5710 5710 5710 5710 5709 5708 5708 5707 5706 5705 5705 5704 5702
5739 5737 5734 5732 5730 5727 5725 5723 5721 5719 5717 5715 5713 5711 5710 5708 5707 5706 5705 5704 5703 5703 5702 5701 5701 5701 5701 5701 5701 5700 5699 5698 5698 5697 5696 5695 5695 5694
5730 5727 5725 5722 5720 5718 5716 5713 5711 5709 5707 5705 5703 5702 5700 5699 5697 5696 5695 5694 5693 5693 5692 5691 5691 5691 5691 5691 5691 5690 5689 5689 5688 5687 5687 5686 5685 5685
5720 5718 5715 5712 5710 5708 5706 5703 5701 5699 5697 5695 5693 5692 5690 5689 5687 5686 5685 5684 5683 5682 5682 5682 5681 5681 5681 5681 5681 5681 5680 5679 5678 5678 5677 5677 5676 5676
5710 5708 5705 5702 5700 5698 5696 5693 5691 5689 5687 5685 5684 5682 5681 5679 5677 5676 5675 5674 5673 5673 5672 5672 5671 5670 5670 5670 5670 5670 5670 5669 5668 5667 5667 5667 5667 5666
5700 5697 5695 5692 5690 5688 5685 5683 5682 5680 5678 5676 5674 5672 5671 5669 5668 5666 5665 5664 5663 5663 5662 5661 5661 5660 5660 5660 5660 5660 5659 5659 5658 5658 5658 5657 5657 5657